Tucumcari, NM

4:45 AM MDT on July 25, 2017 (GMT -0600)
Tucumcari Municipal

Weather History for KTCC - May, 2013

Change the Weather History Date:

Wednesday, May 22, 2013

  Actual Average Record
Temperature  
Mean Temperature 74 °F -  
Max Temperature 93 °F 83 °F 99 °F (1989)
Min Temperature 54 °F 53 °F 35 °F (1931)
Cooling Degree Days 8    
Growing Degree Days 24 (Base 50)    
Moisture  
Dew Point 30 °F    
Average Humidity 28    
Maximum Humidity 57    
Minimum Humidity 7    
Precipitation  
Precipitation 0.00 in - - ()
Sea Level Pressure  
Sea Level Pressure 29.72 in    
Wind  
Wind Speed 5 mph (South)    
Max Wind Speed 15 mph    
Max Gust Speed 24 mph    
Visibility 10 miles    
Events      
Averages and records for this station are not official NWS values.
T = Trace of Precipitation, MM = Missing Value Source: NWS Daily Summary

Daily Weather History Graph

Daily Weather History Graph

Search for Another Location

Airport or City:

Trip Planner

Search our weather history database for the weather conditions in past years. The results will help you decide how hot, cold, wet, or windy it might be!

Date:

Astronomy

May. 22, 2013 Rise Set
Actual Time 5:45 AM MDT 7:57 PM MDT
Civil Twilight 5:16 AM MDT 8:25 PM MDT
Nautical Twilight 4:41 AM MDT 9:00 PM MDT
Astronomical Twilight 4:03 AM MDT 9:39 PM MDT
Moon 5:26 PM MDT (5/22) 3:44 AM MDT (5/22)
Length of Visible Light 15h 08m
Length of Day
14h 11m
Waxing Gibbous, 92% of the Moon is Illuminated
May 22
Waxing Gibbous
May 24
Full
May 31
Last Quarter
Jun 8
New
Jun 16
First Quarter

Hourly Weather History & Observations

Time (MDT) Temp. Dew Point Humidity Pressure Visibility Wind Dir Wind Speed Gust Speed Precip Events Conditions
12:53 AM 57.0 °F 39.9 °F 53% 29.81 in 10.0 mi ENE 3.5 mph - N/A   Clear
1:53 AM 55.9 °F 39.0 °F 53% 29.80 in 10.0 mi Calm Calm - N/A   Clear
2:53 AM 54.0 °F 37.9 °F 55% 29.78 in 10.0 mi East 4.6 mph - N/A   Clear
3:53 AM 54.0 °F 39.0 °F 57% 29.78 in 10.0 mi East 4.6 mph - N/A   Clear
4:53 AM 54.0 °F 39.0 °F 57% 29.78 in 10.0 mi SE 3.5 mph - N/A   Clear
5:53 AM 55.0 °F 39.0 °F 55% 29.79 in 10.0 mi Calm Calm - N/A   Clear
6:53 AM 57.9 °F 39.9 °F 51% 29.79 in 10.0 mi Calm Calm - N/A   Clear
7:53 AM 63.0 °F 41.0 °F 45% 29.80 in 10.0 mi SE 5.8 mph - N/A   Clear
8:53 AM 66.9 °F 39.9 °F 37% 29.82 in 10.0 mi Variable 3.5 mph - N/A   Clear
9:53 AM 70.0 °F 39.9 °F 33% 29.81 in 10.0 mi WSW 4.6 mph - N/A   Clear
10:53 AM 75.0 °F 39.0 °F 27% 29.79 in 10.0 mi Calm Calm - N/A   Clear
11:53 AM 80.1 °F 37.9 °F 22% 29.76 in 10.0 mi Variable 5.8 mph - N/A   Clear
12:53 PM 84.0 °F 36.0 °F 18% 29.73 in 10.0 mi Calm Calm - N/A   Clear
1:53 PM 89.1 °F 30.9 °F 12% 29.69 in 10.0 mi SSE 8.1 mph - N/A   Clear
2:53 PM 91.0 °F 26.1 °F 10% 29.66 in 10.0 mi South 9.2 mph 24.2 mph N/A   Clear
3:53 PM 93.0 °F 19.9 °F 7% 29.62 in 10.0 mi WNW 9.2 mph - N/A   Clear
4:53 PM 91.9 °F 19.0 °F 7% 29.60 in 10.0 mi SSW 12.7 mph 18.4 mph N/A   Clear
5:53 PM 93.0 °F 19.9 °F 7% 29.59 in 10.0 mi South 12.7 mph 20.7 mph N/A   Clear
6:53 PM 91.0 °F 18.0 °F 7% 29.59 in 10.0 mi South 15.0 mph - N/A   Clear
7:53 PM 86.0 °F 16.0 °F 7% 29.60 in 10.0 mi South 11.5 mph - N/A   Clear
8:53 PM 77.0 °F 15.1 °F 10% 29.62 in 10.0 mi South 9.2 mph - N/A   Clear
9:53 PM 71.1 °F 15.1 °F 12% 29.65 in 10.0 mi South 5.8 mph - N/A   Clear
10:53 PM 69.1 °F 15.1 °F 13% 29.66 in 10.0 mi SSW 9.2 mph - N/A   Clear
11:53 PM 68.0 °F 14.0 °F 12% 29.65 in 10.0 mi SW 4.6 mph - N/A   Clear